GW1281 Weather Reports


time (UTC)temp
C
wind
direction
speed
KPH
gust
KPH
rain 1hr
cm
rain 24hr
cm
rain mn
cm
humidity
%
barometer
mb
20260505171534 26 206 12.9 24.1 0.00 0.00 0.00 39 1010.4
20260505171020 26 218 11.3 22.5 0.00 0.00 0.00 40 1010.4
20260505170517 26 205 11.3 25.7 0.00 0.00 0.00 42 1010.5
20260505170034 26 180 11.3 25.7 0.00 0.00 0.00 39 1010.4
20260505165518 26 192 11.3 22.5 0.00 0.00 0.00 41 1010.4
20260505165018 26 217 11.3 22.5 0.00 0.00 0.00 40 1010.4
20260505164553 26 238 6.4 27.4 0.00 0.00 0.00 42 1010.5
20260505164018 26 184 9.7 27.4 0.00 0.00 0.00 41 1010.7
20260505163519 26 168 9.7 22.5 0.00 0.00 0.00 43 1010.6
20260505163036 26 210 6.4 19.3 0.00 0.00 0.00 44 1010.5
20260505162518 26 199 11.3 19.3 0.00 0.00 0.00 42 1010.6
20260505162018 26 146 9.7 17.7 0.00 0.00 0.00 42 1010.6
20260505161547 26 161 9.7 17.7 0.00 0.00 0.00 43 1010.6
20260505161018 26 165 8.0 16.1 0.00 0.00 0.00 43 1010.6
20260505160518 26 318 9.7 19.3 0.00 0.00 0.00 41 1010.6
20260505153045 26 277 6.4 19.3 0.00 0.00 0.00 41 1010.9
20260505152519 25 185 8.0 19.3 0.00 0.00 0.00 40 1011.0
20260505152017 25 321 4.8 17.7 0.00 0.00 0.00 41 1011.0
20260505151535 25 352 6.4 17.7 0.00 0.00 0.00 40 1010.9
20260505151018 25 192 8.0 17.7 0.00 0.00 0.00 40 1010.9
20260505150518 25 220 3.2 14.5 0.00 0.00 0.00 43 1010.9
20260505140521 22 298 3.2 19.3 0.00 0.00 0.00 46 1011.4
20260505125021 19 311 8.0 17.7 0.00 0.00 0.00 55 1011.9
20260505124547 19 269 4.8 19.3 0.00 0.00 0.00 56 1011.9
20260505124021 18 0 3.2 22.5 0.00 0.00 0.00 56 1011.8
20260505123518 18 296 6.4 22.5 0.00 0.00 0.00 56 1011.9
20260505123049 18 288 4.8 22.5 0.00 0.00 0.00 56 1011.8
20260505122518 18 314 8.0 20.9 0.00 0.00 0.00 56 1011.9
20260505122020 18 311 6.4 17.7 0.00 0.00 0.00 56 1011.7
20260505121536 18 203 6.4 17.7 0.00 0.00 0.00 57 1011.6
20260505121019 18 227 8.0 17.7 0.00 0.00 0.00 56 1011.6
20260505120517 18 273 4.8 16.1 0.00 0.00 0.00 58 1011.5
20260505120047 18 244 1.6 12.9 0.00 0.00 0.00 59 1011.5
20260505115516 17 298 1.6 12.9 0.00 0.00 0.00 59 1011.6
20260505115017 17 291 3.2 14.5 0.00 0.00 0.00 60 1011.6
20260505114542 17 317 3.2 14.5 0.00 0.00 0.00 60 1011.6
20260505114016 17 242 3.2 16.1 0.00 0.00 0.00 60 1011.5
20260505113519 17 265 8.0 16.1 0.00 0.00 0.00 61 1011.5
20260505113035 17 0 4.8 14.5 0.00 0.00 0.00 62 1011.6
20260505112518 16 296 1.6 6.4 0.00 0.00 0.00 65 1011.5
20260505112019 16 0 0.0 4.8 0.00 0.00 0.00 65 1011.3
20260505111535 16 0 0.0 4.8 0.00 0.00 0.00 65 1011.2
20260505111022 16 152 1.6 4.8 0.00 0.00 0.00 65 1011.1
20260505110517 16 0 1.6 4.8 0.00 0.00 0.00 66 1011.1
20260505102017 15 0 0.0 4.8 0.00 0.00 0.00 67 1011.0
20260505101536 15 0 0.0 4.8 0.00 0.00 0.00 66 1010.9
20260505101019 15 0 0.0 4.8 0.00 0.00 0.00 66 1010.8
20260505100519 16 77 0.0 4.8 0.00 0.00 0.00 66 1010.7
20260505100036 16 73 0.0 4.8 0.00 0.00 0.00 66 1010.6
20260505095518 16 315 0.0 3.2 0.00 0.00 0.00 65 1010.7
20260505095018 16 0 0.0 6.4 0.00 0.00 0.00 65 1010.6
20260505094535 16 311 0.0 6.4 0.00 0.00 0.00 65 1010.5
20260505094017 16 300 1.6 4.8 0.00 0.00 0.00 65 1010.6
20260505093518 16 0 0.0 6.4 0.00 0.00 0.00 65 1010.5
20260505093043 16 185 0.0 6.4 0.00 0.00 0.00 65 1010.4
20260505092522 16 64 1.6 16.1 0.00 0.00 0.00 65 1010.4
20260505092018 16 319 6.4 16.1 0.00 0.00 0.00 65 1010.4
20260505091540 16 198 3.2 16.1 0.00 0.00 0.00 65 1010.4
20260505091018 16 223 4.8 16.1 0.00 0.00 0.00 65 1010.4
20260505090517 16 194 4.8 16.1 0.00 0.00 0.00 66 1010.3
20260505090033 16 225 1.6 9.7 0.00 0.00 0.00 66 1010.3
20260505085518 16 276 3.2 9.7 0.00 0.00 0.00 66 1010.2
20260505085017 16 0 0.0 9.7 0.00 0.00 0.00 66 1010.1
20260505084544 15 189 1.6 8.0 0.00 0.00 0.00 66 1010.2
20260505084017 15 211 1.6 6.4 0.00 0.00 0.00 66 1010.3
20260505083517 15 277 1.6 4.8 0.00 0.00 0.00 66 1010.4
20260505083044 15 266 1.6 4.8 0.00 0.00 0.00 66 1010.5
20260505082517 15 315 1.6 3.2 0.00 0.00 0.00 66 1010.5
20260505082018 16 0 0.0 4.8 0.00 0.00 0.00 66 1010.6
20260505081548 16 301 0.0 6.4 0.00 0.00 0.00 66 1010.4
20260505081019 16 0 1.6 6.4 0.00 0.00 0.00 66 1010.4
20260505080518 15 229 1.6 12.9 0.00 0.00 0.00 66 1010.3
20260505080034 15 0 3.2 12.9 0.00 0.00 0.00 66 1010.4
20260505075517 16 110 0.0 4.8 0.00 0.00 0.00 65 1010.4
20260505075017 16 0 0.0 4.8 0.00 0.00 0.00 65 1010.4
20260505074534 16 0 1.6 4.8 0.00 0.00 0.00 65 1010.4
20260505074017 16 95 0.0 4.8 0.00 0.00 0.00 65 1010.5
20260505073517 16 0 0.0 8.0 0.00 0.00 0.00 64 1010.6
20260505073041 16 188 1.6 8.0 0.00 0.00 0.00 64 1010.6
20260505072517 16 153 3.2 8.0 0.00 0.00 0.00 64 1010.6
20260505072021 16 212 3.2 6.4 0.00 0.00 0.00 64 1010.6
20260505071539 16 221 1.6 11.3 0.00 0.00 0.00 64 1010.6
20260505071018 16 202 3.2 11.3 0.00 0.00 0.00 64 1010.5
20260505070522 16 187 1.6 4.8 0.00 0.00 0.00 64 1010.6
20260505070043 16 0 1.6 4.8 0.00 0.00 0.00 64 1010.4
20260505065518 16 0 1.6 6.4 0.00 0.00 0.00 64 1010.5
20260505065018 16 242 1.6 6.4 0.00 0.00 0.00 64 1010.5
20260505064535 16 0 0.0 6.4 0.00 0.00 0.00 64 1010.5
20260505064018 16 304 1.6 14.5 0.00 0.00 0.00 64 1010.6
20260505063518 16 35 1.6 14.5 0.00 0.00 0.00 64 1010.5
20260505063037 16 328 1.6 19.3 0.00 0.00 0.00 64 1010.5
20260505062518 16 208 6.4 19.3 0.00 0.00 0.00 63 1010.5
20260505062017 16 13 1.6 14.5 0.00 0.00 0.00 63 1010.4
20260505061539 16 217 3.2 14.5 0.00 0.00 0.00 63 1010.4
20260505061019 16 257 3.2 16.1 0.00 0.00 0.00 62 1010.4
20260505060519 16 200 4.8 16.1 0.00 0.00 0.00 62 1010.5
20260505060040 16 207 3.2 19.3 0.00 0.00 0.00 61 1010.5
20260505055519 16 0 6.4 19.3 0.00 0.00 0.00 61 1010.4
20260505055019 16 202 6.4 19.3 0.00 0.00 0.00 61 1010.4
20260505054536 16 214 8.0 19.3 0.00 0.00 0.00 61 1010.3
20260505054019 16 205 8.0 19.3 0.00 0.00 0.00 61 1010.4
20260505053518 16 242 8.0 17.7 0.00 0.00 0.00 60 1010.5
20260505053059 16 234 8.0 17.7 0.00 0.00 0.00 60 1010.4
20260505052517 16 168 8.0 17.7 0.00 0.00 0.00 59 1010.4
20260505052018 16 193 4.8 19.3 0.00 0.00 0.00 59 1010.5
20260505051541 16 158 8.0 20.9 0.00 0.00 0.00 58 1010.5
20260505051019 16 198 6.4 20.9 0.00 0.00 0.00 58 1010.5
20260505050517 16 208 9.7 19.3 0.00 0.00 0.00 58 1010.6
20260505041542 16 198 9.7 24.1 0.00 0.00 0.00 52 1010.6
20260505041017 17 186 8.0 24.1 0.00 0.00 0.00 52 1010.5
20260505040517 17 181 9.7 24.1 0.00 0.00 0.00 51 1010.4
20260505040038 17 190 8.0 20.9 0.00 0.00 0.00 50 1010.3
20260505035517 17 192 8.0 19.3 0.00 0.00 0.00 49 1010.3
20260505035018 17 192 9.7 19.3 0.00 0.00 0.00 49 1010.4
20260505034549 17 200 8.0 17.7 0.00 0.00 0.00 48 1010.4
20260505034018 17 210 8.0 17.7 0.00 0.00 0.00 47 1010.4
20260505033523 17 201 9.7 19.3 0.00 0.00 0.00 47 1010.3
20260505033046 17 205 9.7 19.3 0.00 0.00 0.00 47 1010.4
20260505032518 17 169 6.4 16.1 0.00 0.00 0.00 46 1010.5
20260505032016 17 144 8.0 20.9 0.00 0.00 0.00 46 1010.5
20260505031535 17 145 8.0 20.9 0.00 0.00 0.00 46 1010.6
20260505031019 17 226 8.0 19.3 0.00 0.00 0.00 45 1010.6
20260505030518 18 169 9.7 19.3 0.00 0.00 0.00 45 1010.7
20260505030035 18 202 6.4 17.7 0.00 0.00 0.00 45 1010.6
20260505025520 18 161 8.0 20.9 0.00 0.00 0.00 45 1010.5
20260505025018 18 196 8.0 20.9 0.00 0.00 0.00 45 1010.6
20260505024533 18 208 8.0 17.7 0.00 0.00 0.00 45 1010.6
20260505024021 18 165 8.0 16.1 0.00 0.00 0.00 45 1010.8
20260505023517 18 234 8.0 16.1 0.00 0.00 0.00 45 1010.7
20260505023035 18 225 9.7 20.9 0.00 0.00 0.00 45 1010.7
20260505022520 18 211 8.0 22.5 0.00 0.00 0.00 45 1010.7
20260505022020 18 223 9.7 22.5 0.00 0.00 0.00 45 1010.8
20260505021539 18 205 6.4 12.9 0.00 0.00 0.00 45 1010.7
20260505021022 18 167 6.4 14.5 0.00 0.00 0.00 44 1010.8
20260505020521 18 227 8.0 16.1 0.00 0.00 0.00 44 1010.8
20260505020036 18 241 6.4 16.1 0.00 0.00 0.00 44 1010.7
20260505015521 18 219 4.8 11.3 0.00 0.00 0.00 44 1010.6
20260505015022 18 209 4.8 14.5 0.00 0.00 0.00 44 1010.6
20260505014536 18 175 4.8 14.5 0.00 0.00 0.00 43 1010.6
20260505014020 18 188 6.4 12.9 0.00 0.00 0.00 43 1010.6
20260505013523 19 180 4.8 12.9 0.00 0.00 0.00 43 1010.6
20260505013041 19 173 4.8 12.9 0.00 0.00 0.00 42 1010.6
20260505012520 19 203 3.2 16.1 0.00 0.00 0.00 42 1010.6
20260505012021 19 201 4.8 16.1 0.00 0.00 0.00 42 1010.7
20260505011602 19 211 6.4 16.1 0.00 0.00 0.00 42 1010.6
20260505011019 19 245 6.4 12.9 0.00 0.00 0.00 42 1010.5
20260505010522 19 225 4.8 12.9 0.00 0.00 0.00 41 1010.5
20260505010043 19 193 3.2 12.9 0.00 0.00 0.00 41 1010.4
20260505005521 19 201 4.8 12.9 0.00 0.00 0.00 41 1010.4
20260505005021 19 208 3.2 12.9 0.00 0.00 0.00 41 1010.3
20260505004536 20 0 4.8 12.9 0.00 0.00 0.00 40 1010.3
20260505004021 20 219 4.8 12.9 0.00 0.00 0.00 40 1010.2
20260505003520 20 192 4.8 9.7 0.00 0.00 0.00 39 1010.1
20260505003034 20 207 3.2 9.7 0.00 0.00 0.00 39 1010.1
20260505002524 20 223 3.2 9.7 0.00 0.00 0.00 39 1010.0
20260505002021 20 197 3.2 8.0 0.00 0.00 0.00 38 1010.0
20260505001543 20 170 0.0 8.0 0.00 0.00 0.00 38 1009.9
20260505001017 20 192 1.6 8.0 0.00 0.00 0.00 37 1009.9
20260505000520 20 210 3.2 8.0 0.00 0.00 0.00 37 1009.9
20260505000058 21 0 1.6 8.0 0.00 0.00 0.00 37 1009.8
20260504235521 21 196 4.8 8.0 0.00 0.00 0.00 36 1009.8
20260504235022 21 236 3.2 11.3 0.00 0.00 0.00 36 1009.9
20260504234540 21 173 4.8 11.3 0.00 0.00 0.00 35 1009.8
20260504234021 21 211 4.8 14.5 0.00 0.00 0.00 35 1009.8
20260504233524 21 199 6.4 14.5 0.00 0.00 0.00 34 1009.8
20260504233054 21 223 9.7 14.5 0.00 0.00 0.00 34 1009.8
20260504232521 21 213 8.0 14.5 0.00 0.00 0.00 34 1009.8
20260504232036 21 219 6.4 17.7 0.00 0.00 0.00 34 1009.8
20260504231536 21 217 6.4 20.9 0.00 0.00 0.00 34 1009.8
20260504231021 21 224 9.7 20.9 0.00 0.00 0.00 34 1009.8
20260504230521 21 179 8.0 16.1 0.00 0.00 0.00 34 1009.8
20260504230100 21 234 9.7 22.5 0.00 0.00 0.00 33 1009.7
20260504225519 22 217 11.3 22.5 0.00 0.00 0.00 33 1009.7
20260504225019 22 221 4.8 19.3 0.00 0.00 0.00 33 1009.7
20260504224538 22 164 4.8 19.3 0.00 0.00 0.00 33 1009.7
20260504224018 22 234 9.7 17.7 0.00 0.00 0.00 33 1009.7
20260504223518 22 213 8.0 24.1 0.00 0.00 0.00 33 1009.7
20260504223034 22 194 9.7 24.1 0.00 0.00 0.00 32 1009.9
20260504222518 22 202 6.4 17.7 0.00 0.00 0.00 32 1009.8
20260504222021 22 224 8.0 19.3 0.00 0.00 0.00 32 1009.8
20260504221539 22 185 8.0 19.3 0.00 0.00 0.00 32 1009.8
20260504221018 22 241 9.7 16.1 0.00 0.00 0.00 32 1009.8
20260504220518 22 203 6.4 14.5 0.00 0.00 0.00 32 1009.8
20260504220036 22 264 4.8 22.5 0.00 0.00 0.00 32 1009.9
20260504215518 22 228 9.7 22.5 0.00 0.00 0.00 32 1010.0
20260504215018 22 178 3.2 16.1 0.00 0.00 0.00 32 1010.0
20260504214534 22 213 6.4 19.3 0.00 0.00 0.00 32 1010.0
20260504214018 22 175 8.0 19.3 0.00 0.00 0.00 33 1010.0
20260504213517 22 231 6.4 19.3 0.00 0.00 0.00 33 1010.0
20260504213037 22 177 6.4 19.3 0.00 0.00 0.00 33 1010.0
20260504212518 22 200 9.7 19.3 0.00 0.00 0.00 32 1010.1
20260504212018 22 207 4.8 17.7 0.00 0.00 0.00 32 1010.1
20260504211533 22 344 6.4 29.0 0.00 0.00 0.00 33 1010.1
20260504211017 22 249 3.2 29.0 0.00 0.00 0.00 33 1010.1
20260504210517 22 318 11.3 24.1 0.00 0.00 0.00 32 1010.2
20260504210040 22 308 6.4 20.9 0.00 0.00 0.00 33 1010.1
20260504205517 22 191 8.0 29.0 0.00 0.00 0.00 32 1010.1
20260504205017 22 182 6.4 29.0 0.00 0.00 0.00 33 1010.1
20260504204535 22 299 6.4 24.1 0.00 0.00 0.00 32 1010.0
20260504204018 22 191 11.3 24.1 0.00 0.00 0.00 31 1010.0
20260504203518 22 212 12.9 22.5 0.00 0.00 0.00 30 1010.2
20260504203036 22 322 3.2 19.3 0.00 0.00 0.00 33 1010.2
20260504202518 22 301 3.2 24.1 0.00 0.00 0.00 33 1010.2
20260504202018 22 195 8.0 24.1 0.00 0.00 0.00 32 1010.3
20260504201534 22 180 11.3 20.9 0.00 0.00 0.00 31 1010.3
20260504201017 22 184 4.8 14.5 0.00 0.00 0.00 32 1010.2
20260504200517 22 201 4.8 25.7 0.00 0.00 0.00 32 1010.3
20260504200035 22 202 11.3 25.7 0.00 0.00 0.00 31 1010.2
20260504195517 22 223 8.0 19.3 0.00 0.00 0.00 30 1010.3
20260504195018 23 290 4.8 17.7 0.00 0.00 0.00 32 1010.3
20260504194540 22 259 6.4 16.1 0.00 0.00 0.00 31 1010.4
20260504194018 22 309 3.2 20.9 0.00 0.00 0.00 33 1010.4
20260504193516 22 205 6.4 20.9 0.00 0.00 0.00 32 1010.4
20260504193036 22 219 6.4 17.7 0.00 0.00 0.00 32 1010.4
20260504192518 22 246 6.4 19.3 0.00 0.00 0.00 32 1010.4
20260504192020 22 198 6.4 20.9 0.00 0.00 0.00 31 1010.6
20260504191535 22 205 11.3 20.9 0.00 0.00 0.00 31 1010.6
20260504191019 22 259 6.4 24.1 0.00 0.00 0.00 33 1010.6
20260504190518 22 265 8.0 24.1 0.00 0.00 0.00 31 1010.7
20260504190037 22 202 9.7 24.1 0.00 0.00 0.00 32 1011.1
20260504185517 22 247 9.7 24.1 0.00 0.00 0.00 32 1010.9
20260504185018 22 167 6.4 19.3 0.00 0.00 0.00 33 1010.9
20260504184534 21 202 8.0 24.1 0.00 0.00 0.00 33 1011.2
20260504184019 21 335 12.9 24.1 0.00 0.00 0.00 32 1011.2
20260504183519 22 319 8.0 24.1 0.00 0.00 0.00 33 1011.3
20260504183033 22 219 8.0 24.1 0.00 0.00 0.00 31 1011.3
20260504182519 22 269 4.8 19.3 0.00 0.00 0.00 35 1011.6
20260504182018 21 213 6.4 19.3 0.00 0.00 0.00 32 1011.5
20260504181536 21 202 6.4 22.5 0.00 0.00 0.00 33 1011.4
20260504181021 21 314 11.3 22.5 0.00 0.00 0.00 31 1011.5
20260504180519 21 293 6.4 20.9 0.00 0.00 0.00 32 1011.6
20260504180035 21 200 8.0 20.9 0.00 0.00 0.00 34 1011.7
20260504175518 21 316 9.7 20.9 0.00 0.00 0.00 33 1011.9
20260504175022 21 232 8.0 19.3 0.00 0.00 0.00 32 1011.9
20260504174535 21 252 9.7 19.3 0.00 0.00 0.00 33 1011.9
20260504174018 21 303 8.0 20.9 0.00 0.00 0.00 34 1012.0
20260504173517 21 325 9.7 22.5 0.00 0.00 0.00 32 1012.1
20260504173034 21 343 9.7 24.1 0.00 0.00 0.00 34 1012.2
20260504172517 21 222 6.4 29.0 0.00 0.00 0.00 34 1012.2
20260504172017 20 0 9.7 29.0 0.00 0.00 0.00 33 1012.3